Location: Dos Palmas
(32.4468°N, 116.8732°W)
Time: 02:17:23
(UTC+00:00)

Cosmos 1627 Rocket - Pass Details

Date: 20 June 2021
Orbit: 950 x 1004 km, 82.9° (Epoch: 27 July)

Event Time Altitude Azimuth Distance (km) Brightness Sun altitude
Exits shadow 09:51:10 64° 251° (WSW) 1,093 4.4 -27.0°
Maximum altitude 09:51:39 66° 277° (W) 1,075 4.5 -26.9°
Drops below altitude 10° 09:57:59 10° 360° (N) 2,772 7.6 -26.2°
Sets 10:00:34 0° 3° (N) 3,729 8.5 -25.9°
